Find Starlink 1433

NORAD ID: 45711 Int'l Des: 2020-035 Owner: SPXS Country: US Constellation: starlink operational
LEOCIRCULAR

現在のビュー

3D地球を読み込み中...

About Starlink 1433

Starlink 1433 (NORAD 45711) is a starlink constellation satellite (v1.0) launched Jun 4, 2020 by SPXS of US. It operates in LEO, CIRCULAR orbit with a mass of 260.00 kg.

Starlink 1433について

説明を読み込み中...

次回通過

Passes for default location (London). Set your location on the main map for personalized predictions.

高度履歴

Loading altitude history...

軌道要素

1 45711U 20035BG 26194.52198642 .00058701 00000-0 32668-3 0 9996
2 45711 53.0411 122.3966 0001356 148.4128 211.6974 15.78916724339089
Epoch: Jul 13, 2026 • Age: 14 hours

現在のステータス

高度 337.4 km
遠地点 / 近地点 N/A
速度 7.71 km/s
衛星直下点 41.86°N, 166.94°W
打ち上げ日 Jun 4, 2020
運用期間 6.1 years
タイプ internet

技術仕様

分類 Payload
質量 260.00 kg
乾燥質量 248.00 kg
総質量 260.00 kg
長さ 0.20 m
直径 2.80 m
スパン 9.00 m
形状 Box + pan
製造者 SPXS
バスタイプ Starlink
フェーズステータス In Orbit
所有者/国 SPXS/US

Most Searched